HULIANWANG DIGUI-71

导读

HULIANWANG DIGUI-71是中国于2025年8月17日成功发射的低轨卫星,隶属于“低轨互联网星座”项目,旨在构建覆盖全球的高速卫星通信网络,推动天地一体化信息网络建设。该卫星将为全球用户提供高速互联网接入服务,尤其可填补偏远地区、海洋等地面网络覆盖盲区,助力中国卫星互联网产业发展与全球互联互通。

Basic Information
目录编号:
65231
目录名称:
HULIANWANG DIGUI-71
国际标识:
2025-178D
轨道中心:
EARTH
卫星名称:
HULIANWANG DIGUI-71
卫星全名:
HULIANWANG DIGUI-71
卫星状态:
在轨 (已飞行393 天)
发射日期:
2025-08-17 UTC
国别 :
中国 (CN)
星等 :
--
This satellite is enrolled in the Space Conjunction Data Service (SCDS) and the current flight risk assessment level is: High Risk
Orbit Information
数据来源 国际轨道数据 AOE轨道数据
星历时间 2026-09-14T03:14:03+0800
8小时前
查看轨道信息
2026-09-13T02:00:00+0800
1天前
查看轨道信息
半长轴 7546.047km 7546.047km
偏心率 0.0001579 0.0001627
轨道倾角 86.506° 86.506°
近地点辐角 105.867° 104.101°
升交点赤经 343.684° 344.038°
平近点角 254.264° 285.799°
近地点 1166.718km 1166.682km
远地点 1169.102km 1169.138km
周期 108.727分钟 108.727分钟
每日圈数 13.244133 13.244133
Detailed Information
使用方式:
暂无
2D Orbit Map
3D Orbit Map
Orbit Altitude Analysis Chart
Orbit Inclination Analysis Chart
Orbit Comprehensive Analysis Chart
View Comprehensive Chart
Conjunction Data List
Event ID Objects TCA Miss Dist (km) Collision Risk Probability Collision Risk Index (CRI) Action
CDM_260916-062500-460706-523122
2026-09-16T
06:25:28+0000
0.361 km
远距离
3.832832E-4 高风险 0.87
Miss Distance Evolution Trend with All Objects Subscribe to Flight Safety Assessment
Collision Probability Evolution Trend with All Objects Subscribe to Flight Safety Assessment